User: anonymous   Login
Location: Dayton
(39.7590°N, 84.1920°W)
Time: 12:34:49
(UTC-04:00)
Language:

Cosmos 1939 Rocket - Orbit

View from above orbital plane
View from above orbital plane
View from above satellite
View from above satellite

Ground track
Ground track

The orbit data is extracted from the following two-line orbital elements,

1 19046U 88032B   17202.23461685 -.00000614 +00000-0 -41372-4 0  9992
2 19046 097.5243 248.1721 0035206 214.4002 145.4944 15.02229215577465
Epoch (UTC): 21 July 2017 05:37:50
Eccentricity: 0.0035206
inclination: 97.5243°
perigee height: 535 km
apogee height: 584 km
right ascension of ascending node: 248.1721°
argument of perigee: 214.4002°
revolutions per day: 15.02229215
mean anomaly at epoch: 145.4944°
orbit number at epoch: 57746

The dashed part of the orbit path shows where the satellite is in the earth's shadow,  

DLR